EW3000 Weather Reports


Display with metric or nautical units.
time (UTC)temp
F
wind
direction
speed
MPH
gust
MPH
rain 1hr
in
rain 24hr
in
rain mn
in
humidity
%
barometer
mb
20260504005414 0 0.0 0.0 0.00 0.00 0.00 1014.5
20260504004843 0 0.0 0.0 0.00 0.00 0.00 1014.5
20260504004414 0 0.0 0.0 0.00 0.00 0.00 1014.4
20260504003846 0 0.0 0.0 0.00 0.00 0.00 1014.4
20260504003342 0 0.0 0.0 0.00 0.00 0.00 1014.3
20260504002848 0 0.0 0.0 0.00 0.00 0.00 1014.3
20260504002354 0 0.0 0.0 0.00 0.00 0.00 1014.2
20260504001841 0 0.0 0.0 0.00 0.00 0.00 1014.2
20260504001349 0 0.0 0.0 0.00 0.00 0.00 1014.1
20260504000857 0 0.0 0.0 0.00 0.00 0.00 1014.1
20260504000349 0 0.0 0.0 0.00 0.00 0.00 1014.0
20260503235854 0 0.0 0.0 0.00 0.00 0.00 1013.9
20260503235405 0 0.0 0.0 0.00 0.00 0.00 1013.9
20260503234850 0 0.0 0.0 0.00 0.00 0.00 1013.9
20260503234359 0 0.0 0.0 0.00 0.00 0.00 1013.8
20260503233847 0 0.0 0.0 0.00 0.00 0.00 1013.7
20260503233401 0 0.0 0.0 0.00 0.00 0.00 1013.8
20260503232921 0 0.0 0.0 0.00 0.00 0.00 1013.7
20260503232346 0 0.0 0.0 0.00 0.00 0.00 1013.7
20260503231853 0 0.0 0.0 0.00 0.00 0.00 1013.7
20260503231344 0 0.0 0.0 0.00 0.00 0.00 1013.7
20260503230918 0 0.0 0.0 0.00 0.00 0.00 1013.8
20260503230409 0 0.0 0.0 0.00 0.00 0.00 1013.7
20260503225851 0 0.0 0.0 0.00 0.00 0.00 1013.7
20260503225340 0 0.0 0.0 0.00 0.00 0.00 1013.7
20260503224851 0 0.0 0.0 0.00 0.00 0.00 1013.7
20260503223847 0 0.0 0.0 0.00 0.00 0.00 1013.7
20260503223358 0 0.0 0.0 0.00 0.00 0.00 1013.6
20260503222843 0 0.0 0.0 0.00 0.00 0.00 1013.6
20260503222354 0 0.0 0.0 0.00 0.00 0.00 1013.6
20260503221902 0 0.0 0.0 0.00 0.00 0.00 1013.6
20260503221410 0 0.0 0.0 0.00 0.00 0.00 1013.6
20260503220837 62 5 5.0 12.0 0.00 0.00 0.00 33 1013.6
20260503220351 62 5 5.0 12.0 0.00 0.00 0.00 33 1013.6
20260503215838 62 5 5.0 11.0 0.00 0.00 0.00 32 1013.6
20260503215348 62 5 2.0 8.0 0.00 0.00 0.00 34 1013.7
20260503214856 62 5 2.0 7.0 0.00 0.00 0.00 34 1013.6
20260503214407 62 5 5.0 10.0 0.00 0.00 0.00 33 1013.7
20260503213838 62 5 5.0 10.0 0.00 0.00 0.00 33 1013.7
20260503213348 62 5 4.0 9.0 0.00 0.00 0.00 33 1013.7
20260503212853 62 5 3.0 9.0 0.00 0.00 0.00 34 1013.7
20260503212341 62 5 1.0 9.0 0.00 0.00 0.00 34 1013.6
20260503211852 62 5 4.0 17.0 0.00 0.00 0.00 34 1013.6
20260503211339 62 5 5.0 17.0 0.00 0.00 0.00 33 1013.5
20260503210910 62 360 5.0 13.0 0.00 0.00 0.00 33 1013.6
20260503210340 63 5 6.0 13.0 0.00 0.00 0.00 32 1013.7
20260503205847 63 5 4.0 15.0 0.00 0.00 0.00 32 1013.5
20260503205357 63 5 4.0 15.0 0.00 0.00 0.00 33 1013.5
20260503204846 63 5 2.0 10.0 0.00 0.00 0.00 34 1013.4
20260503204415 62 5 3.0 10.0 0.00 0.00 0.00 33 1013.6
20260503203859 62 5 3.0 10.0 0.00 0.00 0.00 35 1013.6
20260503203347 61 5 3.0 12.0 0.00 0.00 0.00 34 1013.5
20260503202854 61 5 1.0 8.0 0.00 0.00 0.00 36 1013.6
20260503202401 61 5 2.0 15.0 0.00 0.00 0.00 34 1013.6
20260503201848 61 5 6.0 15.0 0.00 0.00 0.00 34 1013.8
20260503201354 61 5 3.0 12.0 0.00 0.00 0.00 33 1013.7
20260503200844 62 5 3.0 13.0 0.00 0.00 0.00 34 1013.8
20260503200358 61 5 3.0 13.0 0.00 0.00 0.00 34 1013.9
20260503195847 60 5 3.0 15.0 0.00 0.00 0.00 35 1014.0
20260503195417 60 5 4.0 15.0 0.00 0.00 0.00 34 1014.1
20260503194840 60 5 7.0 14.0 0.00 0.00 0.00 35 1014.0
20260503194345 59 5 3.0 14.0 0.00 0.00 0.00 35 1014.2
20260503193858 59 5 6.0 14.0 0.00 0.00 0.00 35 1014.3
20260503193347 59 5 3.0 10.0 0.00 0.00 0.00 35 1014.2
20260503192850 60 5 3.0 11.0 0.00 0.00 0.00 35 1014.4
20260503192356 60 5 5.0 11.0 0.00 0.00 0.00 35 1014.5
20260503191844 60 5 4.0 14.0 0.00 0.00 0.00 35 1014.4
20260503191354 60 5 2.0 17.0 0.00 0.00 0.00 37 1014.6
20260503190847 59 5 8.0 17.0 0.00 0.00 0.00 34 1014.6
20260503190353 60 5 5.0 13.0 0.00 0.00 0.00 35 1014.6
20260503185854 60 5 4.0 13.0 0.00 0.00 0.00 34 1014.5
20260503185343 60 5 6.0 13.0 0.00 0.00 0.00 35 1014.7
20260503184851 60 5 3.0 11.0 0.00 0.00 0.00 36 1014.7
20260503184344 59 5 3.0 13.0 0.00 0.00 0.00 38 1014.8
20260503183851 59 5 6.0 13.0 0.00 0.00 0.00 38 1014.7
20260503183402 59 5 4.0 11.0 0.00 0.00 0.00 37 1014.9
20260503182846 58 5 4.0 11.0 0.00 0.00 0.00 38 1014.8
20260503182354 58 5 4.0 12.0 0.00 0.00 0.00 38 1015.0
20260503181845 57 5 3.0 15.0 0.00 0.00 0.00 39 1015.0
20260503181416 57 5 7.0 15.0 0.00 0.00 0.00 37 1015.0
20260503180857 57 5 5.0 12.0 0.00 0.00 0.00 37 1015.1
20260503180404 57 360 3.0 11.0 0.00 0.00 0.00 39 1015.1
20260503175849 57 5 7.0 15.0 0.00 0.00 0.00 39 1015.2
20260503175418 57 5 6.0 11.0 0.00 0.00 0.00 39 1015.1
20260503174844 56 5 3.0 13.0 0.00 0.00 0.00 40 1015.3
20260503174350 55 5 5.0 16.0 0.00 0.00 0.00 40 1015.3
20260503173854 55 5 5.0 12.0 0.00 0.00 0.00 42 1015.3
20260503173345 55 5 4.0 13.0 0.00 0.00 0.00 39 1015.3
20260503172847 55 5 4.0 13.0 0.00 0.00 0.00 40 1015.4
20260503172418 55 5 4.0 11.0 0.00 0.00 0.00 39 1015.5
20260503171844 55 5 3.0 14.0 0.00 0.00 0.00 42 1015.5
20260503171353 55 5 7.0 14.0 0.00 0.00 0.00 41 1015.4
20260503170838 55 5 6.0 14.0 0.00 0.00 0.00 41 1015.5
20260503170348 56 5 3.0 10.0 0.00 0.00 0.00 41 1015.6
20260503150841 51 5 3.0 9.0 0.00 0.00 0.00 46 1016.3
20260503150350 51 5 3.0 9.0 0.00 0.00 0.00 47 1016.3
20260503131348 46 5 3.0 11.0 0.00 0.00 0.00 58 1016.4
20260503130858 46 5 4.0 11.0 0.00 0.00 0.00 59 1016.4
20260503130347 46 5 5.0 11.0 0.00 0.00 0.00 60 1016.4
20260503110413 0 0.0 0.0 0.00 0.00 0.00 1015.4
20260503090401 0 0.0 0.0 0.00 0.00 0.00 1013.8
20260503081337 0 0.0 0.0 0.00 0.00 0.00 1013.7
20260503080851 0 0.0 0.0 0.00 0.00 0.00 1013.8
20260503080346 0 0.0 0.0 0.00 0.00 0.00 1013.7
20260503072842 0 0.0 0.0 0.00 0.00 0.00 1013.4
20260503072356 0 0.0 0.0 0.00 0.00 0.00 1013.4
20260503071844 0 0.0 0.0 0.00 0.00 0.00 1013.4
20260503071356 0 0.0 0.0 0.00 0.00 0.00 1013.4
20260503070847 0 0.0 0.0 0.00 0.00 0.00 1013.4
20260503070358 0 0.0 0.0 0.00 0.00 0.00 1013.4
20260503054854 0 0.0 0.0 0.00 0.00 0.00 1013.3
20260503054408 0 0.0 0.0 0.00 0.00 0.00 1013.3
20260503053916 0 0.0 0.0 0.00 0.00 0.00 1013.3
20260503053403 0 0.0 0.0 0.00 0.00 0.00 1013.3
20260503052847 0 0.0 0.0 0.00 0.00 0.00 1013.4
20260503052354 0 0.0 0.0 0.00 0.00 0.00 1013.3
20260503051901 0 0.0 0.0 0.00 0.00 0.00 1013.2
20260503051346 0 0.0 0.0 0.00 0.00 0.00 1013.2
20260503050854 0 0.0 0.0 0.00 0.00 0.00 1013.2
20260503050347 0 0.0 0.0 0.00 0.00 0.00 1013.5
20260503045855 0 0.0 0.0 0.00 0.00 0.00 1013.6
20260503045405 0 0.0 0.0 0.00 0.00 0.00 1013.7
20260503044856 0 0.0 0.0 0.00 0.00 0.00 1013.8
20260503044406 0 0.0 0.0 0.00 0.00 0.00 1013.9
20260503043837 0 0.0 0.0 0.00 0.00 0.00 1013.9
20260503043351 0 0.0 0.0 0.00 0.00 0.00 1014.0
20260503042840 0 0.0 0.0 0.00 0.00 0.00 1014.0
20260503042352 0 0.0 0.0 0.00 0.00 0.00 1014.0
20260503041841 0 0.0 0.0 0.00 0.00 0.00 1014.1
20260503041350 0 0.0 0.0 0.00 0.00 0.00 1014.1
20260503040841 0 0.0 0.0 0.00 0.00 0.00 1014.1
20260503040357 0 0.0 0.0 0.00 0.00 0.00 1014.2
20260503035843 0 0.0 0.0 0.00 0.00 0.00 1014.2
20260503035354 0 0.0 0.0 0.00 0.00 0.00 1014.2
20260503034842 0 0.0 0.0 0.00 0.00 0.00 1014.3
20260503034350 0 0.0 0.0 0.00 0.00 0.00 1014.2
20260503033841 0 0.0 0.0 0.00 0.00 0.00 1014.2
20260503033414 0 0.0 0.0 0.00 0.00 0.00 1014.2
20260503032902 0 0.0 0.0 0.00 0.00 0.00 1014.1
20260503032350 0 0.0 0.0 0.00 0.00 0.00 1014.2
20260503031837 0 0.0 0.0 0.00 0.00 0.00 1014.2
20260503031350 0 0.0 0.0 0.00 0.00 0.00 1014.2
20260503030840 0 0.0 0.0 0.00 0.00 0.00 1014.2
20260503030412 0 0.0 0.0 0.00 0.00 0.00 1014.2
20260503025839 0 0.0 0.0 0.00 0.00 0.00 1014.3
20260503025336 0 0.0 0.0 0.00 0.00 0.00 1014.3
20260503024848 0 0.0 0.0 0.00 0.00 0.00 1014.4
20260503024356 0 0.0 0.0 0.00 0.00 0.00 1014.4
20260503023845 0 0.0 0.0 0.00 0.00 0.00 1014.4
20260503023356 0 0.0 0.0 0.00 0.00 0.00 1014.4
20260503022859 0 0.0 0.0 0.00 0.00 0.00 1014.4
20260503022345 0 0.0 0.0 0.00 0.00 0.00 1014.5
20260503021913 0 0.0 0.0 0.00 0.00 0.00 1014.4
20260503021358 0 0.0 0.0 0.00 0.00 0.00 1014.5
20260503020843 0 0.0 0.0 0.00 0.00 0.00 1014.5
20260503020411 0 0.0 0.0 0.00 0.00 0.00 1014.5
20260503015852 0 0.0 0.0 0.00 0.00 0.00 1014.5
20260503015337 0 0.0 0.0 0.00 0.00 0.00 1014.4
20260503014849 0 0.0 0.0 0.00 0.00 0.00 1014.4
20260503014337 0 0.0 0.0 0.00 0.00 0.00 1014.5
20260503013849 0 0.0 0.0 0.00 0.00 0.00 1014.4
20260503013343 0 0.0 0.0 0.00 0.00 0.00 1014.4
20260503012851 0 0.0 0.0 0.00 0.00 0.00 1014.4
20260503012345 0 0.0 0.0 0.00 0.00 0.00 1014.3
20260503011837 0 0.0 0.0 0.00 0.00 0.00 1014.3
20260503011349 0 0.0 0.0 0.00 0.00 0.00 1014.1
20260503010842 0 0.0 0.0 0.00 0.00 0.00 1014.0
20260503010356 0 0.0 0.0 0.00 0.00 0.00 1014.0
20260503005844 0 0.0 0.0 0.00 0.00 0.00 1013.9